FW8888 Weather Reports


time (UTC)temp
F
wind
direction
speed
knots
gust
knots
rain 1hr
in
rain 24hr
in
rain mn
in
humidity
%
barometer
mb
20260510183055 80 0 0.0 1.7 0.00 0.00 0.00 42 1015.2
20260510181552 80 158 0.0 1.7 0.00 0.00 0.00 39 1015.3
20260510180049 80 0 0.0 1.7 0.00 0.00 0.00 39 1015.3
20260510174559 80 8 0.0 2.6 0.00 0.00 0.00 41 1015.3
20260510173105 80 0 0.0 1.7 0.00 0.00 0.00 41 1015.1
20260510171559 80 220 0.9 3.5 0.00 0.00 0.00 40 1015.3
20260510170107 80 238 0.0 1.7 0.00 0.00 0.00 42 1015.3
20260510164559 80 0 0.0 1.7 0.00 0.00 0.00 40 1015.5
20260510163055 80 0 0.0 2.6 0.00 0.00 0.00 38 1015.6
20260510161555 80 0 0.0 2.6 0.00 0.00 0.00 40 1015.7
20260510160055 80 299 0.9 2.6 0.00 0.00 0.00 47 1015.8
20260510154556 79 303 0.0 1.7 0.00 0.00 0.00 49 1016.1
20260510153051 78 0 0.0 2.6 0.00 0.00 0.00 52 1016.0
20260510151552 76 240 0.0 1.7 0.00 0.00 0.00 56 1015.8
20260510150051 75 0 0.0 2.6 0.00 0.00 0.00 61 1015.6
20260510144552 74 0 0.0 1.7 0.00 0.00 0.00 63 1015.8
20260510143052 74 0 0.0 0.9 0.00 0.00 0.00 65 1015.6
20260510141601 75 0 0.0 0.9 0.00 0.00 0.00 65 1015.7
20260510140055 74 0 0.0 0.9 0.00 0.00 0.00 67 1015.7
20260510134604 72 0 0.0 3.5 0.00 0.00 0.00 69 1015.7
20260510133107 71 64 0.0 3.5 0.00 0.00 0.00 73 1015.5
20260510131601 68 0 0.0 2.6 0.00 0.00 0.00 77 1015.6
20260510130052 66 0 0.0 0.9 0.00 0.00 0.00 87 1015.2
20260510124557 64 0 0.0 0.9 0.00 0.00 0.00 92 1015.1
20260510123102 64 0 0.0 0.9 0.00 0.00 0.00 94 1015.1
20260510121558 62 0 0.0 0.0 0.00 0.00 0.00 97 1015.0
20260510120052 62 0 0.0 0.9 0.00 0.00 0.00 98 1014.9
20260510114551 61 0 0.0 0.0 0.00 0.00 0.00 98 1014.9
20260510113053 60 0 0.0 0.0 0.00 0.00 0.00 98 1014.5
20260510111559 60 0 0.0 0.0 0.00 0.00 0.00 97 1014.4
20260510110049 60 0 0.0 0.0 0.00 0.00 0.00 97 1014.3
20260510104554 60 0 0.0 0.9 0.00 0.00 0.00 97 1014.1
20260510103050 60 0 0.0 0.9 0.00 0.00 0.00 98 1013.8
20260510101552 59 0 0.0 0.0 0.00 0.00 0.00 97 1013.6
20260510100055 59 0 0.0 0.0 0.00 0.00 0.00 97 1013.3
20260510094553 59 0 0.0 0.0 0.00 0.00 0.00 97 1013.1
20260510093051 59 0 0.0 0.0 0.00 0.00 0.00 97 1012.9
20260510091558 59 0 0.0 0.0 0.00 0.00 0.00 97 1012.9
20260510090059 59 0 0.0 0.0 0.00 0.00 0.00 97 1012.7
20260510084559 59 0 0.0 0.0 0.00 0.00 0.00 97 1012.5
20260510083100 59 0 0.0 0.0 0.00 0.00 0.00 97 1012.4
20260510081602 59 0 0.0 0.0 0.00 0.00 0.00 97 1012.4
20260510080054 59 0 0.0 0.0 0.00 0.00 0.00 97 1012.4
20260510074557 60 0 0.0 0.0 0.00 0.00 0.00 96 1012.4
20260510073112 60 0 0.0 0.0 0.00 0.00 0.00 96 1012.1
20260510071559 60 0 0.0 0.0 0.00 0.00 0.00 96 1012.2
20260510070054 60 0 0.0 0.0 0.00 0.00 0.00 96 1012.4
20260510064600 60 0 0.0 0.0 0.00 0.00 0.00 96 1012.3
20260510063058 60 0 0.0 0.0 0.00 0.00 0.00 96 1012.3
20260510061550 60 0 0.0 0.0 0.00 0.00 0.00 96 1012.1
20260510060055 61 0 0.0 0.0 0.00 0.00 0.00 96 1012.3
20260510054554 61 0 0.0 0.0 0.00 0.00 0.00 96 1012.4
20260510053053 61 0 0.0 0.0 0.00 0.00 0.00 96 1012.6
20260510051557 61 0 0.0 0.0 0.00 0.00 0.00 96 1012.7
20260510050052 61 0 0.0 0.0 0.00 0.00 0.00 95 1012.6
20260510044558 61 0 0.0 0.0 0.00 0.00 0.00 95 1012.8
20260510043107 61 0 0.0 0.0 0.00 0.00 0.00 95 1012.8
20260510041555 61 0 0.0 0.0 0.00 0.00 0.00 95 1012.7
20260510040053 61 0 0.0 0.0 0.00 0.00 0.00 94 1012.8
20260510034551 62 0 0.0 0.0 0.00 0.00 0.00 94 1012.7
20260510033054 62 0 0.0 0.0 0.00 0.00 0.00 94 1012.5
20260510031556 62 0 0.0 0.0 0.00 0.00 0.00 94 1012.4
20260510030051 62 0 0.0 0.0 0.00 0.00 0.00 93 1012.3
20260510024551 62 0 0.0 0.0 0.00 0.00 0.00 93 1012.4
20260510023050 62 0 0.0 0.0 0.00 0.00 0.00 92 1012.4
20260510021554 62 0 0.0 0.0 0.00 0.00 0.00 92 1012.5
20260510020051 62 0 0.0 0.0 0.00 0.00 0.00 92 1012.4
20260510014550 63 0 0.0 0.0 0.00 0.00 0.00 91 1012.2
20260510013051 63 0 0.0 0.0 0.00 0.00 0.00 90 1011.8
20260510011551 64 0 0.0 0.0 0.00 0.00 0.00 88 1011.6
20260510010048 65 0 0.0 0.0 0.00 0.00 0.00 86 1011.6
20260510004552 66 0 0.0 0.0 0.00 0.00 0.00 85 1011.5
20260510003057 67 0 0.0 0.0 0.00 0.00 0.00 82 1011.4
20260510001554 69 0 0.0 0.0 0.00 0.00 0.00 80 1011.5
20260510000055 69 0 0.0 0.9 0.00 0.00 0.00 79 1011.1
20260509234552 70 217 0.0 0.9 0.00 0.00 0.00 78 1011.2
20260509233055 70 0 0.0 0.0 0.00 0.00 0.00 76 1010.8
20260509231554 71 0 0.0 1.7 0.00 0.00 0.00 75 1010.7
20260509230056 71 0 0.9 2.6 0.00 0.00 0.00 75 1010.8
20260509224600 72 226 0.0 1.7 0.00 0.00 0.00 74 1010.4
20260509223050 72 0 0.0 2.6 0.00 0.00 0.00 74 1010.6
20260509221600 72 219 0.0 1.7 0.00 0.00 0.00 73 1010.8
20260509220049 72 0 0.0 0.9 0.00 0.00 0.00 75 1010.8
20260509214554 72 233 0.9 2.6 0.00 0.00 0.00 73 1010.6
20260509213049 72 231 0.9 4.3 0.00 0.00 0.00 73 1010.5
20260509211555 72 207 0.9 2.6 0.00 0.00 0.00 72 1010.4
20260509210107 71 0 0.9 2.6 0.00 0.00 0.00 72 1010.3
20260509204551 71 229 0.0 3.5 0.00 0.00 0.00 72 1010.6
20260509203052 71 0 0.0 2.6 0.00 0.00 0.00 71 1010.4
20260509201558 71 233 0.9 3.5 0.00 0.00 0.00 72 1010.6
20260509194550 70 238 0.9 2.6 0.00 0.00 0.00 71 1011.1
20260509193052 71 211 1.7 4.3 0.00 0.00 0.00 69 1011.2
20260509191551 72 207 0.9 2.6 0.00 0.00 0.00 66 1011.1
20260509190106 73 238 0.9 5.2 0.00 0.00 0.00 64 1011.0
20260509184551 73 227 0.9 5.2 0.00 0.00 0.00 64 1011.0